{"data":{"norad_id":68958,"intl_designator":"2026-099H","name":"STARLINK-36242","alt_names":[],"object_type":"PAYLOAD","status":"ACTIVE","operator":null,"country":"US","launch_date":"2026-05-01","launch_site_code":"AFETR","launch_vehicle":null,"mission":null,"orbit_class":"UNKNOWN","rcs_meters":null,"size_class":null,"mass_kg":null,"dimensions":null,"purposes":["comms"],"wikipedia_slug":null,"has_3d_model":false,"image_url":null,"decayed_at":null,"tle_current":{"epoch":"2026-05-25T04:00:03.998880Z","epoch_age_seconds":64167,"freshness":"FRESH","line1":"1 68958U 26099H   26145.16671295 -.01903732  00000+0 -20550-1 0  9996","line2":"2 68958  53.1590 270.0683 0000820  78.9222 215.9035 15.66099926  5011","mean_motion":15.66099926,"eccentricity":8.2e-5,"inclination_deg":53.159,"raan_deg":270.0683,"arg_perigee_deg":78.9222,"mean_anomaly_deg":215.9035,"bstar":-0.02055,"rev_number":501,"period_min":91.948155803693,"perigee_km":369.52388632968,"apogee_km":370.63059346502,"semimajor_km":6748.2142398973,"source":"CELESTRAK","updated_at":"2026-05-25T13:38:22.073206Z"}}}